Rabat-Sale, Morocco

10:16 PM WEST on September 26, 2016 (GMT +0100)
Sale

Weather History for GMME - October, 2012

Change the Weather History Date:

Thursday, October 25, 2012

  Actual Average Record
Temperature  
Mean Temperature 70 °F -  
Max Temperature 77 °F 74 °F 80 °F (1997)
Min Temperature 63 °F 56 °F 50 °F (1996)
Cooling Degree Days 5    
Growing Degree Days 20 (Base 50)    
Moisture  
Dew Point 60 °F    
Average Humidity 72    
Maximum Humidity 94    
Minimum Humidity 47    
Precipitation  
Precipitation 0.24 in - - ()
Sea Level Pressure  
Sea Level Pressure 29.81 in    
Wind  
Wind Speed 11 mph ()    
Max Wind Speed 24 mph    
Max Gust Speed 36 mph    
Visibility 3.5 miles    
Events Rain    
Averages and records for this station are not official NWS values.
T = Trace of Precipitation, MM = Missing Value Source: Averaged Metar Reports

Daily Weather History Graph

Daily Weather History Graph

Search for Another Location

Airport or City:

Trip Planner

Search our weather history database for the weather conditions in past years. The results will help you decide how hot, cold, wet, or windy it might be!

Date:

Astronomy

Oct. 25, 2012 Rise Set
Actual Time 6:40 AM WET 5:40 PM WET
Civil Twilight 6:15 AM WET 6:06 PM WET
Nautical Twilight 5:45 AM WET 6:35 PM WET
Astronomical Twilight 5:16 AM WET 7:04 PM WET
Moon 3:11 PM WET (10/25) 2:33 AM WET (10/25)
Length of Visible Light 11h 51m
Length of Day
11h 00m
Waxing Gibbous, 83% of the Moon is Illuminated
Oct 25
Waxing Gibbous
Oct 29
Full
Nov 7
Last Quarter
Nov 13
New
Nov 20
First Quarter

Hourly Weather History & Observations

Time (WET) Temp. Dew Point Humidity Pressure Visibility Wind Dir Wind Speed Gust Speed Precip Events Conditions
12:00 AM 67 °F 61 °F 76% 29.88 in 4 mi Calm Calm - -   Mostly Cloudy
12:00 AM 66.2 °F 60.8 °F 83% 29.89 in 3.7 mi Calm Calm - N/A   Mostly Cloudy
12:30 AM 66.2 °F 60.8 °F 83% 29.86 in 3.7 mi Calm Calm - N/A   Mostly Cloudy
1:00 AM 64.4 °F 60.8 °F 88% 29.86 in 3.7 mi Calm Calm - N/A   Scattered Clouds
1:30 AM 64.4 °F 60.8 °F 88% 29.86 in 3.7 mi Calm Calm - N/A   Scattered Clouds
2:00 AM 66.2 °F 60.8 °F 83% 29.83 in 3.7 mi South 6.9 mph - N/A   Scattered Clouds
2:30 AM 68.0 °F 60.8 °F 78% 29.83 in 3.7 mi SSW 9.2 mph - N/A   Scattered Clouds
3:00 AM 69 °F 60 °F 66% 29.83 in 4 mi SSW 12.7 mph - -   Partly Cloudy
3:00 AM 68.0 °F 60.8 °F 78% 29.83 in 3.7 mi SSW 12.7 mph - N/A   Scattered Clouds
3:30 AM 69.8 °F 60.8 °F 73% 29.80 in 3.7 mi SSW 11.5 mph - N/A   Scattered Clouds
4:00 AM 69.8 °F 59.0 °F 68% 29.80 in 3.7 mi South 12.7 mph - N/A   Scattered Clouds
4:30 AM 69.8 °F 59.0 °F 68% 29.80 in 3.7 mi SSW 11.5 mph - N/A   Scattered Clouds
5:00 AM 69.8 °F 59.0 °F 68% 29.80 in 3.7 mi South 12.7 mph - N/A   Scattered Clouds
5:30 AM 69.8 °F 59.0 °F 68% 29.80 in 3.7 mi SSW 9.2 mph - N/A   Scattered Clouds
6:00 AM 69 °F 59 °F 61% 29.80 in 4 mi SSW 10.4 mph - -   Partly Cloudy
6:00 AM 69.8 °F 59.0 °F 68% 29.80 in 3.7 mi SSW 10.4 mph - N/A   Scattered Clouds
6:30 AM 68.0 °F 59.0 °F 73% 29.80 in 3.7 mi South 8.1 mph - N/A   Scattered Clouds
7:00 AM 68.0 °F 59.0 °F 73% 29.80 in 3.7 mi South 6.9 mph - N/A   Scattered Clouds
7:30 AM 69.8 °F 59.0 °F 68% 29.80 in 5.0 mi SW 13.8 mph - N/A   Mostly Cloudy
8:00 AM 71.6 °F 59.0 °F 64% 29.83 in 5.0 mi SSW 13.8 mph - N/A   Mostly Cloudy
8:30 AM 71.6 °F 59.0 °F 64% 29.83 in 5.0 mi SW 17.3 mph - N/A   Mostly Cloudy
9:00 AM 72 °F 59 °F 54% 29.84 in 5 mi SW 23.0 mph - -   Partly Cloudy
9:00 AM 71.6 °F 59.0 °F 64% 29.83 in 5.0 mi SW 23.0 mph 35.7 mph N/A   Mostly Cloudy
9:30 AM 71.6 °F 60.8 °F 69% 29.83 in 3.1 mi SSW 18.4 mph - N/A   Mostly Cloudy
10:00 AM 73.4 °F 60.8 °F 65% 29.83 in 3.1 mi SSW 18.4 mph - N/A   Mostly Cloudy
10:30 AM 73.4 °F 57.2 °F 57% 29.83 in 3.1 mi SW 21.9 mph - N/A   Mostly Cloudy
11:00 AM 75.2 °F 57.2 °F 53% 29.80 in 3.7 mi SW 19.6 mph - N/A   Mostly Cloudy
11:30 AM 77.0 °F 55.4 °F 47% 29.80 in 3.7 mi SW 21.9 mph - N/A   Mostly Cloudy
12:00 PM 75.2 °F 59.0 °F 57% 29.80 in 3.7 mi WSW 18.4 mph - N/A   Mostly Cloudy
12:30 PM 73.4 °F 57.2 °F 57% 29.80 in 3.7 mi SW 24.2 mph - N/A   Mostly Cloudy
1:00 PM 77.0 °F 57.2 °F 50% 29.80 in 3.7 mi SW 19.6 mph - N/A   Scattered Clouds
1:30 PM 77.0 °F 57.2 °F 50% 29.77 in 3.7 mi WSW 17.3 mph - N/A   Scattered Clouds
2:00 PM 73.4 °F 57.2 °F 57% 29.77 in 3.7 mi West 18.4 mph - N/A   Mostly Cloudy
2:30 PM 71.6 °F 60.8 °F 69% 29.77 in 3.7 mi West 18.4 mph - N/A   Mostly Cloudy
2:48 PM 69.8 °F 62.6 °F 78% 29.77 in 1.2 mi West 15.0 mph - N/A Rain Rain
2:55 PM 68.0 °F 64.4 °F 88% 29.77 in 1.2 mi West 19.6 mph 32.2 mph N/A Rain Rain
3:00 PM 67 °F 64 °F 87% 29.79 in 1 mi West 20.7 mph - - Rain Light Rain
3:00 PM 66.2 °F 64.4 °F 94% 29.80 in 1.2 mi West 20.7 mph 32.2 mph N/A Rain Rain
3:30 PM 66.2 °F 64.4 °F 94% 29.80 in 2.5 mi WSW 21.9 mph 33.4 mph N/A   Partly Cloudy
4:00 PM 68.0 °F 62.6 °F 83% 29.80 in 3.1 mi WSW 16.1 mph - N/A   Scattered Clouds
4:30 PM 69.8 °F 62.6 °F 78% 29.80 in 4.3 mi SW 18.4 mph 32.2 mph N/A   Scattered Clouds
5:00 PM 69.8 °F 60.8 °F 73% 29.80 in 4.3 mi WSW 18.4 mph - N/A   Scattered Clouds
5:30 PM 69.8 °F 60.8 °F 73% 29.80 in 4.3 mi SW 17.3 mph - N/A   Scattered Clouds
6:00 PM 69 °F 60 °F 67% 29.80 in 4 mi SW 21.9 mph - -   Partly Cloudy
6:00 PM 69.8 °F 60.8 °F 73% 29.80 in 4.3 mi SW 21.9 mph 33.4 mph N/A   Scattered Clouds
6:30 PM - - N/A% 0.00 in - North - - N/A   Scattered Clouds
7:00 PM 68.0 °F 60.8 °F 78% 29.80 in 3.1 mi SW 16.1 mph - N/A   Scattered Clouds
7:30 PM 68.0 °F 59.0 °F 73% 29.80 in 3.1 mi SSW 16.1 mph - N/A   Scattered Clouds
8:00 PM 68.0 °F 59.0 °F 73% 29.83 in 3.1 mi SSW 15.0 mph - N/A   Scattered Clouds
8:30 PM 68.0 °F 59.0 °F 73% 29.83 in 3.1 mi SSW 15.0 mph - N/A   Scattered Clouds
9:00 PM 67 °F 59 °F 70% 29.82 in 3 mi SSW 12.7 mph - -  
9:00 PM 68.0 °F 59.0 °F 73% 29.80 in 3.1 mi SSW 12.7 mph - N/A   Scattered Clouds
9:30 PM 68.0 °F 60.8 °F 78% 29.83 in 3.1 mi SSW 15.0 mph - N/A   Scattered Clouds
10:00 PM 68.0 °F 60.8 °F 78% 29.83 in 3.1 mi SSW 16.1 mph - N/A   Scattered Clouds
10:30 PM 68.0 °F 60.8 °F 78% 29.83 in 3.1 mi SW 16.1 mph - N/A   Scattered Clouds
11:00 PM 68.0 °F 60.8 °F 78% 29.83 in 3.1 mi SW 20.7 mph - N/A   Mostly Cloudy
11:30 PM 66.2 °F 60.8 °F 83% 29.83 in 3.1 mi SW 13.8 mph - N/A   Mostly Cloudy